When you browse on this site, cookies collect data to enhance your experience and personalize the content and advertising you see.
Visit our Privacy Policy to learn more. By continuing to use the site, you agree to this use of cookies and data.

Hourly Weather Zasupoivka

Today, 22 September, Tuesday

Time Temperature Precipitation Wind Pressure Humidity
00:00 +13°C° 0 mm 1 mps 755 mmHg 53%
01:00 +12°C° 0 mm 1 mps 755 mmHg 53%
02:00 +12°C° 0 mm 2 mps 755 mmHg 56%
03:00 +12°C° 0 mm 2 mps 755 mmHg 56%
04:00 +12°C° 0 mm 2 mps 755 mmHg 55%
05:00 +10°C° 0 mm 2 mps 755 mmHg 55%
06:00 +13°C° 0 mm 2 mps 755 mmHg 51%
07:00 +14°C° 0 mm 2 mps 755 mmHg 48%
08:00 +16°C° 0 mm 2 mps 755 mmHg 44%
09:00 +18°C° 0 mm 2 mps 755 mmHg 40%
10:00 +20°C° 0 mm 3 mps 755 mmHg 36%
11:00 +24°C° 0 mm 3 mps 755 mmHg 31%
12:00 +24°C° 0 mm 3 mps 755 mmHg 30%
13:00 +25°C° 0 mm 3 mps 755 mmHg 28%
14:00 +26°C° 0 mm 3 mps 754 mmHg 26%
15:00 +25°C° 0 mm 2 mps 754 mmHg 29%
16:00 +24°C° 0 mm 1 mps 754 mmHg 32%
17:00 +23°C° 0 mm 1 mps 753 mmHg 35%
18:00 +21°C° 0 mm 1 mps 753 mmHg 38%
19:00 +18°C° 0 mm 2 mps 753 mmHg 40%
20:00 +17°C° 0 mm 2 mps 753 mmHg 43%
21:00 +16°C° 0 mm 2 mps 753 mmHg 45%
22:00 +15°C° 0 mm 2 mps 753 mmHg 47%
23:00 +15°C° 0 mm 2 mps 753 mmHg 49%

Tomorrow, 23 September, Wednesday

Time Temperature Precipitation Wind Pressure Humidity
00:00 +14°C° 0 mm 2 mps 753 mmHg 49%
01:00 +14°C° 0 mm 2 mps 753 mmHg 49%
02:00 +13°C° 0 mm 2 mps 753 mmHg 49%
03:00 +13°C° 0 mm 2 mps 753 mmHg 48%
04:00 +13°C° 0 mm 2 mps 753 mmHg 47%
05:00 +12°C° 0 mm 2 mps 753 mmHg 46%
06:00 +14°C° 0 mm 2 mps 753 mmHg 43%
07:00 +15°C° 0 mm 2 mps 753 mmHg 40%
08:00 +17°C° 0 mm 2 mps 753 mmHg 36%
09:00 +19°C° 0 mm 2 mps 753 mmHg 32%
10:00 +21°C° 0 mm 3 mps 752 mmHg 27%
11:00 +25°C° 0 mm 3 mps 752 mmHg 23%
12:00 +25°C° 0 mm 3 mps 752 mmHg 21%
13:00 +26°C° 0 mm 3 mps 751 mmHg 20%
14:00 +27°C° 0 mm 4 mps 751 mmHg 19%
15:00 +26°C° 0 mm 3 mps 751 mmHg 21%
16:00 +24°C° 0 mm 3 mps 750 mmHg 23%
17:00 +23°C° 0 mm 2 mps 750 mmHg 26%
18:00 +20°C° 0 mm 2 mps 750 mmHg 26%
19:00 +19°C° 0 mm 3 mps 750 mmHg 27%
20:00 +17°C° 0 mm 3 mps 750 mmHg 28%
21:00 +17°C° 0 mm 3 mps 750 mmHg 29%
22:00 +16°C° 0 mm 3 mps 750 mmHg 31%
23:00 +14°C° 0 mm 3 mps 750 mmHg 32%

Day after tomorrow, 24 September, Thursday

Time Temperature Precipitation Wind Pressure Humidity
00:00 +14°C° 0 mm 3 mps 750 mmHg 33%
01:00 +13°C° 0 mm 3 mps 750 mmHg 34%
02:00 +13°C° 0 mm 3 mps 750 mmHg 35%
03:00 +12°C° 0 mm 3 mps 750 mmHg 35%
04:00 +12°C° 0 mm 3 mps 750 mmHg 36%
05:00 +11°C° 0 mm 3 mps 750 mmHg 36%
06:00 +13°C° 0 mm 3 mps 750 mmHg 35%
07:00 +14°C° 0 mm 3 mps 750 mmHg 33%
08:00 +17°C° 0 mm 3 mps 750 mmHg 31%
09:00 +20°C° 0 mm 3 mps 750 mmHg 28%
10:00 +22°C° 0 mm 3 mps 750 mmHg 24%
11:00 +26°C° 0 mm 3 mps 749 mmHg 21%
12:00 +26°C° 0 mm 4 mps 749 mmHg 22%
13:00 +27°C° 0 mm 4 mps 749 mmHg 22%
14:00 +28°C° 0 mm 4 mps 749 mmHg 23%
15:00 +27°C° 0 mm 3 mps 749 mmHg 26%
16:00 +26°C° 0 mm 3 mps 749 mmHg 28%
17:00 +25°C° 0 mm 2 mps 748 mmHg 31%
18:00 +23°C° 0 mm 2 mps 748 mmHg 32%
19:00 +20°C° 0 mm 3 mps 749 mmHg 34%
20:00 +19°C° 0 mm 3 mps 749 mmHg 35%
21:00 +18°C° 0 mm 3 mps 749 mmHg 37%
22:00 +18°C° 0 mm 3 mps 749 mmHg 39%
23:00 +17°C° 0 mm 3 mps 749 mmHg 41%

25 September, Friday

Time Temperature Precipitation Wind Pressure Humidity
00:00 +17°C° 0 mm 3 mps 749 mmHg 44%
01:00 +16°C° 0 mm 3 mps 749 mmHg 47%
02:00 +16°C° 0 mm 3 mps 748 mmHg 50%
03:00 +16°C° 0 mm 3 mps 748 mmHg 51%
04:00 +16°C° 0 mm 3 mps 748 mmHg 51%
05:00 +14°C° 0 mm 3 mps 748 mmHg 52%
06:00 +17°C° 0 mm 3 mps 748 mmHg 49%
07:00 +18°C° 0 mm 4 mps 748 mmHg 47%
08:00 +19°C° 0 mm 4 mps 748 mmHg 44%
09:00 +21°C° 0 mm 4 mps 748 mmHg 39%
10:00 +25°C° 0 mm 5 mps 748 mmHg 34%
11:00 +27°C° 0 mm 5 mps 748 mmHg 30%
12:00 +27°C° 0 mm 5 mps 748 mmHg 27%
13:00 +28°C° 0 mm 5 mps 748 mmHg 25%
14:00 +28°C° 0 mm 5 mps 747 mmHg 23%
15:00 +27°C° 0 mm 4 mps 747 mmHg 25%
16:00 +26°C° 0 mm 4 mps 747 mmHg 27%
17:00 +25°C° 0 mm 3 mps 746 mmHg 29%
18:00 +22°C° 0 mm 3 mps 746 mmHg 33%
19:00 +21°C° 0 mm 3 mps 746 mmHg 36%
20:00 +19°C° 0 mm 4 mps 746 mmHg 40%
21:00 +19°C° 0 mm 4 mps 746 mmHg 41%
22:00 +19°C° 0 mm 4 mps 746 mmHg 43%
23:00 +18°C° 0 mm 4 mps 746 mmHg 45%

26 September, Saturday

Time Temperature Precipitation Wind Pressure Humidity
00:00 +18°C° 0 mm 4 mps 746 mmHg 46%
01:00 +17°C° 0 mm 4 mps 746 mmHg 48%
02:00 +17°C° 0 mm 4 mps 746 mmHg 49%
03:00 +17°C° 0 mm 4 mps 745 mmHg 52%
04:00 +15°C° 0 mm 4 mps 745 mmHg 55%
05:00 +15°C° 0 mm 4 mps 745 mmHg 57%
06:00 +17°C° 0 mm 4 mps 745 mmHg 55%
07:00 +17°C° 0 mm 5 mps 745 mmHg 52%
08:00 +19°C° 0 mm 5 mps 745 mmHg 50%
09:00 +21°C° 0 mm 5 mps 745 mmHg 45%
10:00 +24°C° 0 mm 6 mps 745 mmHg 39%
11:00 +27°C° 0 mm 6 mps 745 mmHg 34%
12:00 +28°C° 0 mm 6 mps 745 mmHg 33%
13:00 +28°C° 0 mm 7 mps 744 mmHg 32%
14:00 +29°C° 0 mm 7 mps 744 mmHg 31%
15:00 +28°C° 0 mm 6 mps 744 mmHg 33%
16:00 +28°C° 0 mm 5 mps 743 mmHg 35%
17:00 +27°C° 0 mm 4 mps 743 mmHg 38%
18:00 +26°C° 0 mm 4 mps 743 mmHg 40%
19:00 +25°C° 0 mm 4 mps 743 mmHg 43%
20:00 +23°C° 0 mm 4 mps 743 mmHg 46%
21:00 +23°C° 0 mm 5 mps 743 mmHg 45%
22:00 +23°C° 0 mm 6 mps 743 mmHg 43%
23:00 +23°C° 0 mm 7 mps 743 mmHg 42%

27 September, Sunday

Time Temperature Precipitation Wind Pressure Humidity
00:00 +23°C° 0 mm 8 mps 743 mmHg 40%
01:00 +22°C° 0 mm 8 mps 743 mmHg 38%
02:00 +22°C° 0 mm 9 mps 743 mmHg 35%
03:00 +21°C° 0 mm 9 mps 743 mmHg 38%
04:00 +21°C° 0 mm 9 mps 743 mmHg 41%
05:00 +21°C° 0 mm 10 mps 743 mmHg 44%
06:00 +21°C° 0.1 mm 10 mps 743 mmHg 44%
07:00 +21°C° 0.1 mm 11 mps 743 mmHg 43%
08:00 +21°C° 0.1 mm 11 mps 742 mmHg 43%
09:00 +21°C° 0.2 mm 11 mps 742 mmHg 43%
10:00 +22°C° 0.2 mm 11 mps 742 mmHg 44%
11:00 +23°C° 0.2 mm 11 mps 742 mmHg 45%
12:00 +22°C° 1.3 mm 11 mps 742 mmHg 52%
13:00 +21°C° 1.3 mm 10 mps 742 mmHg 60%
14:00 +19°C° 1.3 mm 9 mps 742 mmHg 67%
15:00 +18°C° 0.8 mm 9 mps 742 mmHg 71%
16:00 +18°C° 0.8 mm 8 mps 742 mmHg 76%
17:00 +18°C° 0.8 mm 8 mps 743 mmHg 80%
18:00 +17°C° 1 mm 7 mps 743 mmHg 79%
19:00 +17°C° 1 mm 6 mps 744 mmHg 79%
20:00 +17°C° 1 mm 5 mps 745 mmHg 78%
21:00 +15°C° 0.1 mm 4 mps 745 mmHg 81%
22:00 +14°C° 0.1 mm 3 mps 746 mmHg 84%
23:00 +14°C° 0.1 mm 2 mps 747 mmHg 87%
Show more